Retour au catalogue

COSMOS 839 DEB

ActifUNKNOWN
NORAD 10451·DEBRIS·🇷🇺 Russia

Lancé Jul 8, 1976 depuis Plesetsk Cosmodrome

Loading…

Prochains Passages (prochaines 24 heures)

TLE

FraisSource: Space-Track

Époque: Sep 14, 2026, 08:20 UTC

1 10451U 76067AC  26257.34783544 -.00000061  00000-0 -11361-4 0  9992
2 10451  65.8493 250.8019 0763137  68.1269 299.9072 12.45892771281984

Suivez COSMOS 839 DEB en temps réel avec AllMySat

Download on the App Store